Oxnard, CA

10:39 PM PST on February 22, 2017 (GMT -0800)
Oxnard

Weather History for KOXR - July, 2013

Change the Weather History Date:

Tuesday, July 9, 2013

  Actual Average Record
Temperature  
Mean Temperature 65 °F -  
Max Temperature 72 °F 74 °F 89 °F (1985)
Min Temperature 60 °F 58 °F 50 °F (1948)
Growing Degree Days 15 (Base 50)    
Moisture  
Dew Point 59 °F    
Average Humidity 83    
Maximum Humidity 94    
Minimum Humidity 63    
Precipitation  
Precipitation 0.00 in - - ()
Sea Level Pressure  
Sea Level Pressure 29.95 in    
Wind  
Wind Speed 8 mph (WNW)    
Max Wind Speed 14 mph    
Max Gust Speed -    
Visibility 7 miles    
Events      
Averages and records for this station are not official NWS values.
T = Trace of Precipitation, MM = Missing Value Source: NWS Daily Summary

Daily Weather History Graph

Daily Weather History Graph

Search for Another Location

Airport or City:

Trip Planner

Search our weather history database for the weather conditions in past years. The results will help you decide how hot, cold, wet, or windy it might be!

Date:

Astronomy

Jul. 09, 2013 Rise Set
Actual Time 5:52 AM PDT 8:11 PM PDT
Civil Twilight 5:23 AM PDT 8:40 PM PDT
Nautical Twilight 4:48 AM PDT 9:15 PM PDT
Astronomical Twilight 4:09 AM PDT 9:53 PM PDT
Moon 7:15 AM PDT (7/9) 8:58 PM PDT (7/9)
Length of Visible Light 15h 16m
Length of Day
14h 18m
New Moon, 2% of the Moon is Illuminated
Jul 9
New Moon
Jul 15
First Quarter
Jul 22
Full
Jul 29
Last Quarter
Aug 6
New

Hourly Weather History & Observations

Time (PDT) Temp. Dew Point Humidity Pressure Visibility Wind Dir Wind Speed Gust Speed Precip Events Conditions
12:51 AM 62.1 °F 59.0 °F 90% 29.92 in 7.0 mi West 8.1 mph - N/A   Clear
1:51 AM 61.0 °F 57.9 °F 90% 29.92 in 7.0 mi WNW 5.8 mph - N/A   Clear
2:29 AM 60.8 °F 57.2 °F 88% 29.92 in 7.0 mi WNW 4.6 mph - N/A   Partly Cloudy
2:51 AM 61.0 °F 57.9 °F 90% 29.92 in 7.0 mi West 5.8 mph - N/A   Mostly Cloudy
3:51 AM 61.0 °F 59.0 °F 93% 29.92 in 7.0 mi WNW 8.1 mph - N/A   Overcast
4:51 AM 62.1 °F 59.0 °F 90% 29.91 in 7.0 mi NW 5.8 mph - N/A   Overcast
5:17 AM 60.8 °F 59.0 °F 94% 29.91 in 5.0 mi WNW 6.9 mph - N/A   Overcast
5:51 AM 61.0 °F 59.0 °F 93% 29.92 in 4.0 mi Calm Calm - N/A   Overcast
6:07 AM 60.8 °F 59.0 °F 94% 29.92 in 1.8 mi West 4.6 mph - N/A   Overcast
6:33 AM 62.6 °F 59.0 °F 88% 29.92 in 2.5 mi NW 8.1 mph - N/A   Overcast
6:43 AM 62.6 °F 59.0 °F 88% 29.93 in 4.0 mi WNW 10.4 mph - N/A   Overcast
6:51 AM 62.1 °F 59.0 °F 90% 29.93 in 5.0 mi WNW 8.1 mph - N/A   Overcast
7:09 AM 62.6 °F 59.0 °F 88% 29.94 in 6.0 mi WNW 5.8 mph - N/A   Overcast
7:51 AM 64.0 °F 59.0 °F 84% 29.95 in 8.0 mi West 4.6 mph - N/A   Mostly Cloudy
7:57 AM 64.4 °F 59.0 °F 83% 29.96 in 8.0 mi West 4.6 mph - N/A   Clear
8:51 AM 64.9 °F 59.0 °F 81% 29.97 in 9.0 mi Variable 3.5 mph - N/A   Clear
9:51 AM 68.0 °F 60.1 °F 76% 29.97 in 9.0 mi West 6.9 mph - N/A   Clear
10:36 AM 66.2 °F 60.8 °F 83% 29.98 in 8.0 mi WSW 9.2 mph - N/A   Partly Cloudy
10:51 AM 66.0 °F 60.1 °F 81% 29.99 in 8.0 mi Variable 6.9 mph - N/A   Partly Cloudy
11:51 AM 69.1 °F 60.1 °F 73% 29.99 in 10.0 mi West 10.4 mph - N/A   Clear
12:51 PM 70.0 °F 59.0 °F 68% 29.99 in 10.0 mi WSW 6.9 mph - N/A   Clear
1:51 PM 70.0 °F 59.0 °F 68% 29.99 in 10.0 mi West 12.7 mph - N/A   Clear
2:51 PM 70.0 °F 57.9 °F 65% 29.99 in 10.0 mi West 12.7 mph - N/A   Clear
3:51 PM 70.0 °F 57.0 °F 63% 29.98 in 10.0 mi West 11.5 mph - N/A   Clear
4:51 PM 68.0 °F 57.9 °F 70% 29.97 in 10.0 mi West 13.8 mph - N/A   Clear
5:51 PM 66.0 °F 57.9 °F 75% 29.96 in 9.0 mi West 12.7 mph - N/A   Clear
6:51 PM 64.9 °F 57.9 °F 78% 29.95 in 8.0 mi West 13.8 mph - N/A   Clear
7:46 PM 62.6 °F 57.2 °F 82% 29.95 in 7.0 mi WNW 12.7 mph - N/A   Partly Cloudy
7:51 PM 63.0 °F 57.9 °F 84% 29.94 in 6.0 mi WNW 12.7 mph - N/A   Haze
8:18 PM 62.6 °F 57.2 °F 82% 29.94 in 7.0 mi WNW 12.7 mph - N/A   Mostly Cloudy
8:51 PM 62.1 °F 57.9 °F 86% 29.93 in 7.0 mi WNW 8.1 mph - N/A   Mostly Cloudy
9:51 PM 62.1 °F 59.0 °F 90% 29.94 in 7.0 mi WNW 10.4 mph - N/A   Mostly Cloudy
10:51 PM 62.1 °F 59.0 °F 90% 29.94 in 7.0 mi West 8.1 mph - N/A   Overcast
11:51 PM 62.1 °F 59.0 °F 90% 29.94 in 8.0 mi West 6.9 mph - N/A   Overcast